Weather in Nogales

Mexico     31°18′20″N   110°56′25″W
temp.,
°C
wind,
m/s
gust,
m/s
humid.,
%
clouds,
%
prec.,
mm/h
press.,
hPa
HPBL,
m
13 april, tue
tue1323:00+13s33360 0.0 101112
02:00+12sse44410 0.0 101027
05:00+10sse434415 0.0 101019
08:00+16s510290 0.0 1011909
11:00+22ssw1010150 0.0 10101496
14:00+24ssw11111669 0.0 10082045
17:00+22sw111221100 0.0 10072126
20:00+16sw81428100 0.0 1010361
14 april, wed
wed1423:00+12s443846 0.0 101126
02:00+11sse454985 0.0 101242
05:00+10sse4451100 0.0 101230
08:00+15s51030100 0.0 1012609
11:00+20ssw101116100 0.0 10121230
14:00+23ssw111213100 0.0 10101705
17:00+22sw111214100 0.0 10091724
20:00+15sw61218100 0.0 1012297
15 april, thu
thu1523:00+13s3325100 0.0 101322
02:00+11s333396 0.0 101216
05:00+11s3338100 0.0 101221
08:00+15ssw4819100 0.0 1013555
11:00+20sw881170 0.0 10121303
14:00+22sw99105 0.0 10091782
17:00+21wsw88938 0.0 10091803
20:00+14w3420100 0.0 101239
16 april, fri
fri1623:00+11w113276 0.0 101210
02:00+8wnw114291 0.0 101110
05:00+10nne1134100 0.0 101110
08:00+14ne1222100 0.0 1012289
11:00+18nnw3315100 0.0 10111613
14:00+22wnw451187 0.0 10082512
17:00+21wnw7610100 0.0 10072518
20:00+15wnw441447 0.0 101024
17 april, sat
sat1723:00+11nw1122100 0.0 101110
02:00+8nne11320 0.0 101110
05:00+7ese11300 0.0 101110
08:00+16ssw12180 0.0 1011490
11:00+20w66140 0.0 10102466
14:00+22wnw88120 0.0 10093014
17:00+21wnw89120 0.0 10082937
20:00+13wnw44190 0.0 101134